Time,TemperatureF,DewpointF,PressureIn,WindDirection,WindDirectionDegrees,WindSpeedMPH,WindSpeedGustMPH,Humidity,HourlyPrecipIn,Conditions,Clouds,dailyrainin,SoftwareType,DateUTC
2013-11-03 00:01:00,41.5,39.9,30.07,WNW,288,0.0,2.0,94,0.00,,,1.31,WUHU216DAVISVP2,2013-11-03 04:01:00,
2013-11-03 00:02:00,41.5,39.9,30.07,WNW,288,0.0,2.0,94,0.00,,,1.31,WUHU216DAVISVP2,2013-11-03 04:02:00,
2013-11-03 00:07:00,41.5,39.9,30.07,WNW,289,2.0,2.0,94,0.00,,,0.00,WUHU216DAVISVP2,2013-11-03 04:07:00,
2013-11-03 00:12:00,41.5,39.9,30.07,NNE,32,0.0,4.0,94,0.00,,,0.00,WUHU216DAVISVP2,2013-11-03 04:12:00,
2013-11-03 00:17:00,41.6,39.7,30.08,NNE,32,0.0,4.0,93,0.00,,,0.00,WUHU216DAVISVP2,2013-11-03 04:17:00,
2013-11-03 00:22:00,41.6,40.0,30.08,NNE,12,0.0,4.0,94,0.00,,,0.00,WUHU216DAVISVP2,2013-11-03 04:22:00,
2013-11-03 00:27:00,41.6,39.4,30.08,East,90,0.0,10.0,92,0.00,,,0.00,WUHU216DAVISVP2,2013-11-03 04:27:00,
2013-11-03 00:32:00,41.7,39.5,30.08,East,90,0.0,10.0,92,0.00,,,0.00,WUHU216DAVISVP2,2013-11-03 04:32:00,
2013-11-03 00:37:00,41.7,39.2,30.08,ESE,107,0.0,6.0,91,0.00,,,0.00,WUHU216DAVISVP2,2013-11-03 04:37:00,
2013-11-03 00:42:00,41.8,39.6,30.08,East,90,0.0,6.0,92,0.00,,,0.00,WUHU216DAVISVP2,2013-11-03 04:42:00,
2013-11-03 00:47:00,41.7,38.9,30.08,ENE,74,0.0,4.0,90,0.00,,,0.00,WUHU216DAVISVP2,2013-11-03 04:47:00,
2013-11-03 00:52:00,41.7,38.9,30.09,ENE,63,2.0,4.0,90,0.00,,,0.00,WUHU216DAVISVP2,2013-11-03 04:52:00,
2013-11-03 00:57:00,41.7,38.9,30.09,NE,49,2.0,6.0,90,0.00,,,0.00,WUHU216DAVISVP2,2013-11-03 04:57:00,
2013-11-03 01:05:00,41.6,38.9,30.09,NE,48,0.0,2.0,90,0.00,,,0.00,WUHU216DAVISVP2,2013-11-03 05:05:00,
2013-11-03 01:10:00,41.5,38.7,30.09,ENE,64,0.0,4.0,90,0.00,,,0.00,WUHU216DAVISVP2,2013-11-03 05:10:00,
2013-11-03 01:15:00,41.5,38.7,30.09,NE,42,0.0,6.0,90,0.00,,,0.00,WUHU216DAVISVP2,2013-11-03 05:15:00,
2013-11-03 01:20:00,41.5,38.7,30.10,NE,44,0.0,6.0,90,0.00,,,0.00,WUHU216DAVISVP2,2013-11-03 05:20:00,
2013-11-03 01:25:00,41.4,38.6,30.10,NE,44,2.0,6.0,90,0.00,,,0.00,WUHU216DAVISVP2,2013-11-03 05:25:00,
2013-11-03 01:30:00,41.4,38.6,30.10,NE,44,0.0,2.0,90,0.00,,,0.00,WUHU216DAVISVP2,2013-11-03 05:30:00,
2013-11-03 01:35:00,41.3,38.3,30.11,NE,38,0.0,4.0,89,0.00,,,0.00,WUHU216DAVISVP2,2013-11-03 05:35:00,
2013-11-03 01:40:00,41.2,38.4,30.11,NE,38,0.0,4.0,90,0.00,,,0.00,WUHU216DAVISVP2,2013-11-03 05:40:00,
2013-11-03 01:45:00,41.1,38.3,30.11,NE,39,0.0,2.0,90,0.00,,,0.00,WUHU216DAVISVP2,2013-11-03 05:45:00,
2013-11-03 01:50:00,41.1,38.3,30.11,NE,39,0.0,2.0,90,0.00,,,0.00,WUHU216DAVISVP2,2013-11-03 05:50:00,
2013-11-03 01:55:00,41.0,38.5,30.11,NE,39,0.0,2.0,91,0.00,,,0.00,WUHU216DAVISVP2,2013-11-03 05:55:00,
2013-11-03 01:00:00,41.0,38.2,30.11,NE,54,0.0,4.0,90,0.00,,,0.00,WUHU216DAVISVP2,2013-11-03 06:00:00,
2013-11-03 01:05:00,40.9,38.2,30.11,West,278,4.0,4.0,90,0.00,,,0.00,WUHU216DAVISVP2,2013-11-03 06:05:00,
2013-11-03 01:10:00,41.0,38.2,30.12,NE,55,4.0,6.0,90,0.00,,,0.00,WUHU216DAVISVP2,2013-11-03 06:10:00,
2013-11-03 01:15:00,41.1,38.1,30.12,ENE,65,0.0,8.0,89,0.00,,,0.00,WUHU216DAVISVP2,2013-11-03 06:15:00,
2013-11-03 01:20:00,41.1,38.1,30.12,NE,52,0.0,8.0,89,0.00,,,0.00,WUHU216DAVISVP2,2013-11-03 06:20:00,
2013-11-03 01:25:00,41.1,37.8,30.12,East,80,2.0,4.0,88,0.00,,,0.00,WUHU216DAVISVP2,2013-11-03 06:25:00,
2013-11-03 01:30:00,41.0,37.7,30.13,East,83,4.0,4.0,88,0.00,,,0.00,WUHU216DAVISVP2,2013-11-03 06:30:00,
2013-11-03 01:35:00,41.0,37.4,30.13,ESE,121,2.0,6.0,87,0.00,,,0.00,WUHU216DAVISVP2,2013-11-03 06:35:00,
2013-11-03 01:40:00,40.9,37.6,30.13,ESE,121,0.0,6.0,88,0.00,,,0.00,WUHU216DAVISVP2,2013-11-03 06:40:00,
2013-11-03 01:45:00,40.7,37.1,30.13,ESE,120,0.0,4.0,87,0.00,,,0.00,WUHU216DAVISVP2,2013-11-03 06:45:00,
2013-11-03 01:50:00,40.4,37.1,30.13,ESE,120,0.0,4.0,88,0.00,,,0.00,WUHU216DAVISVP2,2013-11-03 06:50:00,
2013-11-03 01:55:00,40.1,37.1,30.13,ESE,121,0.0,4.0,89,0.00,,,0.00,WUHU216DAVISVP2,2013-11-03 06:55:00,
2013-11-03 02:00:00,39.8,36.8,30.13,ESE,121,0.0,4.0,89,0.00,,,0.00,WUHU216DAVISVP2,2013-11-03 07:00:00,
2013-11-03 02:05:00,39.5,36.8,30.14,ESE,121,0.0,2.0,90,0.00,,,0.00,WUHU216DAVISVP2,2013-11-03 07:05:00,
2013-11-03 02:10:00,39.2,36.5,30.14,ESE,121,0.0,0.0,90,0.00,,,0.00,WUHU216DAVISVP2,2013-11-03 07:10:00,
2013-11-03 02:15:00,38.8,36.4,30.14,ESE,121,0.0,0.0,91,0.00,,,0.00,WUHU216DAVISVP2,2013-11-03 07:15:00,
2013-11-03 02:20:00,38.5,36.1,30.15,ESE,120,0.0,0.0,91,0.00,,,0.00,WUHU216DAVISVP2,2013-11-03 07:20:00,
2013-11-03 02:25:00,38.2,36.0,30.15,ESE,121,0.0,0.0,92,0.00,,,0.00,WUHU216DAVISVP2,2013-11-03 07:25:00,
2013-11-03 02:30:00,37.8,35.6,30.15,ESE,121,0.0,0.0,92,0.00,,,0.00,WUHU216DAVISVP2,2013-11-03 07:30:00,
2013-11-03 02:35:00,37.5,35.3,30.15,ESE,121,0.0,0.0,92,0.00,,,0.00,WUHU216DAVISVP2,2013-11-03 07:35:00,
2013-11-03 02:40:00,37.2,35.0,30.15,ESE,120,0.0,2.0,92,0.00,,,0.00,WUHU216DAVISVP2,2013-11-03 07:40:00,
2013-11-03 02:45:00,37.0,35.1,30.15,ESE,120,0.0,2.0,93,0.00,,,0.00,WUHU216DAVISVP2,2013-11-03 07:45:00,
2013-11-03 02:50:00,36.9,35.0,30.16,ESE,121,0.0,0.0,93,0.00,,,0.00,WUHU216DAVISVP2,2013-11-03 07:50:00,
2013-11-03 02:55:00,36.8,34.9,30.16,ESE,120,0.0,0.0,93,0.00,,,0.00,WUHU216DAVISVP2,2013-11-03 07:55:00,
2013-11-03 03:00:00,36.6,34.7,30.16,ESE,120,0.0,0.0,93,0.00,,,0.00,WUHU216DAVISVP2,2013-11-03 08:00:00,
2013-11-03 03:05:00,36.5,34.6,30.16,ESE,120,0.0,0.0,93,0.00,,,0.00,WUHU216DAVISVP2,2013-11-03 08:05:00,
2013-11-03 03:10:00,36.4,34.8,30.17,ESE,120,0.0,0.0,94,0.00,,,0.00,WUHU216DAVISVP2,2013-11-03 08:10:00,
2013-11-03 03:15:00,36.2,34.6,30.17,ESE,121,0.0,2.0,94,0.00,,,0.00,WUHU216DAVISVP2,2013-11-03 08:15:00,
2013-11-03 03:20:00,36.1,34.5,30.17,ESE,121,0.0,2.0,94,0.00,,,0.00,WUHU216DAVISVP2,2013-11-03 08:20:00,
2013-11-03 03:25:00,36.2,34.6,30.17,ESE,120,0.0,0.0,94,0.00,,,0.00,WUHU216DAVISVP2,2013-11-03 08:25:00,
2013-11-03 03:30:00,36.3,35.0,30.17,ESE,121,0.0,0.0,95,0.00,,,0.00,WUHU216DAVISVP2,2013-11-03 08:30:00,
2013-11-03 03:35:00,36.4,35.1,30.18,ESE,121,0.0,0.0,95,0.00,,,0.00,WUHU216DAVISVP2,2013-11-03 08:35:00,
2013-11-03 03:40:00,36.5,35.2,30.18,ESE,120,0.0,0.0,95,0.00,,,0.00,WUHU216DAVISVP2,2013-11-03 08:40:00,
2013-11-03 03:45:00,36.6,35.3,30.18,ESE,121,0.0,0.0,95,0.00,,,0.00,WUHU216DAVISVP2,2013-11-03 08:45:00,
2013-11-03 03:50:00,36.6,35.3,30.18,ESE,121,0.0,0.0,95,0.00,,,0.00,WUHU216DAVISVP2,2013-11-03 08:50:00,
2013-11-03 03:55:00,36.7,35.4,30.19,ESE,120,0.0,0.0,95,0.00,,,0.00,WUHU216DAVISVP2,2013-11-03 08:55:00,
2013-11-03 04:00:00,36.7,35.4,30.19,ESE,121,0.0,0.0,95,0.00,,,0.00,WUHU216DAVISVP2,2013-11-03 09:00:00,
2013-11-03 04:05:00,36.8,35.5,30.19,ESE,121,0.0,0.0,95,0.00,,,0.00,WUHU216DAVISVP2,2013-11-03 09:05:00,
2013-11-03 04:10:00,36.8,35.5,30.20,ESE,121,0.0,0.0,95,0.00,,,0.00,WUHU216DAVISVP2,2013-11-03 09:10:00,
2013-11-03 04:15:00,36.8,35.7,30.20,ESE,121,0.0,0.0,96,0.00,,,0.00,WUHU216DAVISVP2,2013-11-03 09:15:00,
2013-11-03 04:20:00,36.9,35.8,30.20,ESE,120,0.0,0.0,96,0.00,,,0.00,WUHU216DAVISVP2,2013-11-03 09:20:00,
2013-11-03 04:25:00,36.9,35.8,30.21,ESE,121,0.0,0.0,96,0.00,,,0.00,WUHU216DAVISVP2,2013-11-03 09:25:00,
2013-11-03 04:30:00,36.9,35.8,30.21,ESE,119,0.0,4.0,96,0.00,,,0.00,WUHU216DAVISVP2,2013-11-03 09:30:00,
2013-11-03 04:35:00,37.0,35.7,30.21,ESE,119,0.0,4.0,95,0.00,,,0.00,WUHU216DAVISVP2,2013-11-03 09:35:00,
2013-11-03 04:40:00,37.0,35.7,30.21,ESE,119,0.0,4.0,95,0.00,,,0.00,WUHU216DAVISVP2,2013-11-03 09:40:00,
2013-11-03 04:45:00,37.0,35.7,30.21,ESE,119,0.0,2.0,95,0.00,,,0.00,WUHU216DAVISVP2,2013-11-03 09:45:00,
2013-11-03 04:50:00,36.9,35.6,30.22,ESE,119,0.0,0.0,95,0.00,,,0.00,WUHU216DAVISVP2,2013-11-03 09:50:00,
2013-11-03 04:55:00,36.8,35.5,30.22,ESE,119,0.0,0.0,95,0.00,,,0.00,WUHU216DAVISVP2,2013-11-03 09:55:00,
2013-11-03 05:00:00,36.5,35.2,30.22,ESE,119,0.0,0.0,95,0.00,,,0.00,WUHU216DAVISVP2,2013-11-03 10:00:00,
2013-11-03 05:05:00,36.4,35.1,30.22,ESE,119,0.0,0.0,95,0.00,,,0.00,WUHU216DAVISVP2,2013-11-03 10:05:00,
2013-11-03 05:10:00,36.2,34.9,30.23,ESE,119,0.0,0.0,95,0.00,,,0.00,WUHU216DAVISVP2,2013-11-03 10:10:00,
2013-11-03 05:15:00,36.1,34.8,30.23,ESE,119,0.0,0.0,95,0.00,,,0.00,WUHU216DAVISVP2,2013-11-03 10:15:00,
2013-11-03 05:20:00,36.0,34.7,30.23,ESE,119,0.0,0.0,95,0.00,,,0.00,WUHU216DAVISVP2,2013-11-03 10:20:00,
2013-11-03 05:25:00,35.9,34.6,30.23,ESE,119,0.0,0.0,95,0.00,,,0.00,WUHU216DAVISVP2,2013-11-03 10:25:00,
2013-11-03 05:30:00,35.9,34.6,30.24,ESE,119,0.0,0.0,95,0.00,,,0.00,WUHU216DAVISVP2,2013-11-03 10:30:00,
2013-11-03 05:35:00,36.0,34.7,30.24,ESE,119,0.0,2.0,95,0.00,,,0.00,WUHU216DAVISVP2,2013-11-03 10:35:00,
2013-11-03 05:40:00,36.1,34.8,30.25,ESE,119,0.0,2.0,95,0.00,,,0.00,WUHU216DAVISVP2,2013-11-03 10:40:00,
2013-11-03 05:45:00,36.2,35.1,30.25,ESE,119,0.0,2.0,96,0.00,,,0.00,WUHU216DAVISVP2,2013-11-03 10:45:00,
2013-11-03 05:50:00,36.3,35.0,30.25,ESE,119,0.0,0.0,95,0.00,,,0.00,WUHU216DAVISVP2,2013-11-03 10:50:00,
2013-11-03 05:55:00,36.3,35.0,30.26,ESE,119,0.0,0.0,95,0.00,,,0.00,WUHU216DAVISVP2,2013-11-03 10:55:00,
2013-11-03 06:00:00,36.3,35.0,30.26,ESE,119,0.0,0.0,95,0.00,,,0.00,WUHU216DAVISVP2,2013-11-03 11:00:00,
2013-11-03 06:05:00,36.4,35.1,30.26,ESE,119,0.0,2.0,95,0.00,,,0.00,WUHU216DAVISVP2,2013-11-03 11:05:00,
2013-11-03 06:10:00,36.4,35.1,30.26,ESE,117,2.0,4.0,95,0.00,,,0.00,WUHU216DAVISVP2,2013-11-03 11:10:00,
2013-11-03 06:15:00,36.4,35.1,30.26,East,90,0.0,4.0,95,0.00,,,0.00,WUHU216DAVISVP2,2013-11-03 11:15:00,
2013-11-03 06:20:00,36.4,34.8,30.27,East,92,0.0,4.0,94,0.00,,,0.00,WUHU216DAVISVP2,2013-11-03 11:20:00,
2013-11-03 06:25:00,36.3,34.4,30.27,East,92,0.0,4.0,93,0.00,,,0.00,WUHU216DAVISVP2,2013-11-03 11:25:00,
2013-11-03 06:30:00,36.2,34.3,30.28,ENE,66,0.0,4.0,93,0.00,,,0.00,WUHU216DAVISVP2,2013-11-03 11:30:00,
2013-11-03 06:35:00,36.1,34.0,30.28,ENE,66,0.0,4.0,92,0.00,,,0.00,WUHU216DAVISVP2,2013-11-03 11:35:00,
2013-11-03 06:40:00,35.9,33.8,30.28,ENE,66,0.0,2.0,92,0.00,,,0.00,WUHU216DAVISVP2,2013-11-03 11:40:00,
2013-11-03 06:45:00,35.8,33.7,30.29,ENE,66,2.0,2.0,92,0.00,,,0.00,WUHU216DAVISVP2,2013-11-03 11:45:00,
2013-11-03 06:50:00,35.7,33.6,30.29,ENE,66,0.0,2.0,92,0.00,,,0.00,WUHU216DAVISVP2,2013-11-03 11:50:00,
2013-11-03 06:55:00,35.5,33.4,30.29,ENE,66,0.0,2.0,92,0.00,,,0.00,WUHU216DAVISVP2,2013-11-03 11:55:00,
2013-11-03 07:00:00,35.3,33.2,30.29,ENE,66,0.0,2.0,92,0.00,,,0.00,WUHU216DAVISVP2,2013-11-03 12:00:00,
2013-11-03 07:05:00,35.2,33.1,30.30,ENE,66,0.0,0.0,92,0.00,,,0.00,WUHU216DAVISVP2,2013-11-03 12:05:00,
2013-11-03 07:10:00,35.2,33.1,30.30,ENE,65,2.0,4.0,92,0.00,,,0.00,WUHU216DAVISVP2,2013-11-03 12:10:00,
2013-11-03 07:15:00,35.3,33.2,30.30,ENE,65,0.0,4.0,92,0.00,,,0.00,WUHU216DAVISVP2,2013-11-03 12:15:00,
2013-11-03 07:20:00,35.5,33.4,30.31,ENE,65,0.0,2.0,92,0.00,,,0.00,WUHU216DAVISVP2,2013-11-03 12:20:00,
2013-11-03 07:25:00,35.7,33.6,30.31,ENE,65,0.0,2.0,92,0.00,,,0.00,WUHU216DAVISVP2,2013-11-03 12:25:00,
2013-11-03 07:30:00,35.9,33.8,30.31,East,92,0.0,4.0,92,0.00,,,0.00,WUHU216DAVISVP2,2013-11-03 12:30:00,
2013-11-03 07:35:00,36.1,34.0,30.32,ENE,74,0.0,4.0,92,0.00,,,0.00,WUHU216DAVISVP2,2013-11-03 12:35:00,
2013-11-03 07:40:00,36.3,34.2,30.32,ENE,62,0.0,2.0,92,0.00,,,0.00,WUHU216DAVISVP2,2013-11-03 12:40:00,
2013-11-03 07:45:00,36.5,34.3,30.32,SE,128,0.0,6.0,92,0.00,,,0.00,WUHU216DAVISVP2,2013-11-03 12:45:00,
2013-11-03 07:50:00,36.6,33.9,30.33,SE,127,2.0,6.0,90,0.00,,,0.00,WUHU216DAVISVP2,2013-11-03 12:50:00,
2013-11-03 07:55:00,36.8,34.1,30.33,East,82,0.0,4.0,90,0.00,,,0.00,WUHU216DAVISVP2,2013-11-03 12:55:00,
2013-11-03 08:00:00,37.0,34.0,30.34,East,87,0.0,6.0,89,0.00,,,0.00,WUHU216DAVISVP2,2013-11-03 13:00:00,
2013-11-03 08:05:00,37.3,34.0,30.34,East,96,0.0,6.0,88,0.00,,,0.00,WUHU216DAVISVP2,2013-11-03 13:05:00,
2013-11-03 08:10:00,37.5,34.2,30.34,ESE,111,0.0,6.0,88,0.00,,,0.00,WUHU216DAVISVP2,2013-11-03 13:10:00,
2013-11-03 08:15:00,37.7,33.9,30.34,SE,127,0.0,8.0,86,0.00,,,0.00,WUHU216DAVISVP2,2013-11-03 13:15:00,
2013-11-03 08:20:00,37.9,34.1,30.35,NE,54,2.0,8.0,86,0.00,,,0.00,WUHU216DAVISVP2,2013-11-03 13:20:00,
2013-11-03 08:25:00,38.1,34.0,30.35,NE,42,0.0,8.0,85,0.00,,,0.00,WUHU216DAVISVP2,2013-11-03 13:25:00,
2013-11-03 08:30:00,38.2,34.4,30.36,NNE,19,6.0,8.0,86,0.00,,,0.00,WUHU216DAVISVP2,2013-11-03 13:30:00,
2013-11-03 08:35:00,38.3,34.2,30.36,NE,34,0.0,8.0,85,0.00,,,0.00,WUHU216DAVISVP2,2013-11-03 13:35:00,
2013-11-03 08:40:00,38.4,34.0,30.36,East,89,0.0,8.0,84,0.00,,,0.00,WUHU216DAVISVP2,2013-11-03 13:40:00,
2013-11-03 08:45:00,38.6,34.5,30.36,East,89,0.0,8.0,85,0.00,,,0.00,WUHU216DAVISVP2,2013-11-03 13:45:00,
2013-11-03 08:50:00,38.8,34.9,30.37,East,89,0.0,2.0,86,0.00,,,0.00,WUHU216DAVISVP2,2013-11-03 13:50:00,
2013-11-03 08:55:00,38.9,34.2,30.37,ENE,65,0.0,6.0,83,0.00,,,0.00,WUHU216DAVISVP2,2013-11-03 13:55:00,
2013-11-03 09:00:00,38.9,33.3,30.37,SSE,154,0.0,14.0,80,0.00,,,0.00,WUHU216DAVISVP2,2013-11-03 14:00:00,
2013-11-03 09:05:00,39.1,34.1,30.37,NNE,22,4.0,14.0,82,0.00,,,0.00,WUHU216DAVISVP2,2013-11-03 14:05:00,
2013-11-03 09:10:00,39.2,33.6,30.37,NE,43,6.0,8.0,80,0.00,,,0.00,WUHU216DAVISVP2,2013-11-03 14:10:00,
2013-11-03 09:15:00,39.2,33.6,30.38,ENE,62,2.0,10.0,80,0.00,,,0.00,WUHU216DAVISVP2,2013-11-03 14:15:00,
2013-11-03 09:20:00,39.3,33.4,30.38,ENE,72,6.0,14.0,79,0.00,,,0.00,WUHU216DAVISVP2,2013-11-03 14:20:00,
2013-11-03 09:25:00,39.3,33.4,30.38,NE,50,8.0,14.0,79,0.00,,,0.00,WUHU216DAVISVP2,2013-11-03 14:25:00,
2013-11-03 09:30:00,39.4,33.1,30.38,ESE,117,4.0,12.0,78,0.00,,,0.00,WUHU216DAVISVP2,2013-11-03 14:30:00,
2013-11-03 09:35:00,39.5,33.6,30.38,ENE,72,0.0,10.0,79,0.00,,,0.00,WUHU216DAVISVP2,2013-11-03 14:35:00,
2013-11-03 09:41:00,39.7,33.7,30.38,NE,42,4.0,12.0,79,0.00,,,0.00,WUHU216DAVISVP2,2013-11-03 14:41:00,
2013-11-03 09:46:00,39.8,33.5,30.39,NE,53,0.0,12.0,78,0.00,,,0.00,WUHU216DAVISVP2,2013-11-03 14:46:00,
2013-11-03 09:51:00,40.2,34.2,30.38,ENE,57,8.0,10.0,79,0.00,,,0.00,WUHU216DAVISVP2,2013-11-03 14:51:00,
2013-11-03 09:56:00,40.3,34.0,30.39,ESE,118,0.0,14.0,78,0.00,,,0.00,WUHU216DAVISVP2,2013-11-03 14:56:00,
2013-11-03 10:01:00,40.4,33.8,30.39,ENE,78,4.0,16.0,77,0.00,,,0.00,WUHU216DAVISVP2,2013-11-03 15:01:00,
2013-11-03 10:06:00,40.5,33.9,30.39,ESE,106,2.0,16.0,77,0.00,,,0.00,WUHU216DAVISVP2,2013-11-03 15:06:00,
2013-11-03 10:11:00,40.7,33.4,30.40,ENE,63,6.0,16.0,75,0.00,,,0.00,WUHU216DAVISVP2,2013-11-03 15:11:00,
2013-11-03 10:16:00,40.7,34.1,30.40,East,92,0.0,16.0,77,0.00,,,0.00,WUHU216DAVISVP2,2013-11-03 15:16:00,
2013-11-03 10:21:00,41.0,34.4,30.40,NNW,348,2.0,10.0,77,0.00,,,0.00,WUHU216DAVISVP2,2013-11-03 15:21:00,
2013-11-03 10:26:00,41.0,34.1,30.40,ENE,78,4.0,14.0,76,0.00,,,0.00,WUHU216DAVISVP2,2013-11-03 15:26:00,
2013-11-03 10:31:00,41.2,34.3,30.40,East,80,4.0,14.0,76,0.00,,,0.00,WUHU216DAVISVP2,2013-11-03 15:31:00,
2013-11-03 10:36:00,41.4,33.5,30.40,NNW,348,6.0,20.0,73,0.00,,,0.00,WUHU216DAVISVP2,2013-11-03 15:36:00,
2013-11-03 10:41:00,41.5,33.2,30.40,NE,47,2.0,20.0,72,0.00,,,0.00,WUHU216DAVISVP2,2013-11-03 15:41:00,
2013-11-03 10:46:00,41.4,33.5,30.40,ESE,115,2.0,18.0,73,0.00,,,0.00,WUHU216DAVISVP2,2013-11-03 15:46:00,
2013-11-03 10:51:00,41.5,33.2,30.40,ESE,120,10.0,18.0,72,0.00,,,0.00,WUHU216DAVISVP2,2013-11-03 15:51:00,
2013-11-03 10:56:00,42.2,34.2,30.41,NNE,14,8.0,14.0,73,0.00,,,0.00,WUHU216DAVISVP2,2013-11-03 15:56:00,
2013-11-03 11:01:00,42.5,33.8,30.41,North,360,6.0,14.0,71,0.00,,,0.00,WUHU216DAVISVP2,2013-11-03 16:01:00,
2013-11-03 11:06:00,42.4,33.4,30.41,NE,46,8.0,16.0,70,0.00,,,0.00,WUHU216DAVISVP2,2013-11-03 16:06:00,
2013-11-03 11:11:00,42.2,33.2,30.41,ENE,67,6.0,16.0,70,0.00,,,0.00,WUHU216DAVISVP2,2013-11-03 16:11:00,
2013-11-03 11:16:00,41.9,33.3,30.41,NE,48,8.0,20.0,71,0.00,,,0.00,WUHU216DAVISVP2,2013-11-03 16:16:00,
2013-11-03 11:21:00,42.3,33.3,30.41,NE,54,6.0,20.0,70,0.00,,,0.00,WUHU216DAVISVP2,2013-11-03 16:21:00,
2013-11-03 11:26:00,43.0,34.3,30.41,ENE,78,4.0,14.0,71,0.00,,,0.00,WUHU216DAVISVP2,2013-11-03 16:26:00,
2013-11-03 11:31:00,43.3,33.9,30.41,NE,34,10.0,14.0,69,0.00,,,0.00,WUHU216DAVISVP2,2013-11-03 16:31:00,
2013-11-03 11:36:00,42.8,33.8,30.41,NNE,32,4.0,14.0,70,0.00,,,0.00,WUHU216DAVISVP2,2013-11-03 16:36:00,
2013-11-03 11:41:00,42.5,33.1,30.41,NNE,18,4.0,18.0,69,0.00,,,0.00,WUHU216DAVISVP2,2013-11-03 16:41:00,
2013-11-03 11:46:00,42.9,34.2,30.41,ENE,68,2.0,18.0,71,0.00,,,0.00,WUHU216DAVISVP2,2013-11-03 16:46:00,
2013-11-03 11:51:00,43.5,34.1,30.41,NNE,14,0.0,16.0,69,0.00,,,0.00,WUHU216DAVISVP2,2013-11-03 16:51:00,
2013-11-03 11:56:00,43.7,34.3,30.41,WNW,294,4.0,18.0,69,0.00,,,0.00,WUHU216DAVISVP2,2013-11-03 16:56:00,
2013-11-03 12:01:00,44.0,34.6,30.41,East,94,4.0,18.0,69,0.00,,,0.00,WUHU216DAVISVP2,2013-11-03 17:01:00,
2013-11-03 12:06:00,44.5,33.9,30.41,East,90,2.0,10.0,66,0.00,,,0.00,WUHU216DAVISVP2,2013-11-03 17:06:00,
2013-11-03 12:11:00,44.3,33.0,30.41,NE,39,10.0,16.0,64,0.00,,,0.00,WUHU216DAVISVP2,2013-11-03 17:11:00,
2013-11-03 12:16:00,44.5,34.7,30.41,NE,38,4.0,16.0,68,0.00,,,0.00,WUHU216DAVISVP2,2013-11-03 17:16:00,
2013-11-03 12:21:00,44.2,32.9,30.41,ENE,69,4.0,16.0,64,0.00,,,0.00,WUHU216DAVISVP2,2013-11-03 17:21:00,
2013-11-03 12:26:00,43.4,32.9,30.41,NW,320,8.0,20.0,66,0.00,,,0.00,WUHU216DAVISVP2,2013-11-03 17:26:00,
2013-11-03 12:31:00,43.5,33.0,30.41,SSE,160,4.0,20.0,66,0.00,,,0.00,WUHU216DAVISVP2,2013-11-03 17:31:00,
2013-11-03 12:36:00,44.1,33.2,30.41,NNE,28,0.0,12.0,65,0.00,,,0.00,WUHU216DAVISVP2,2013-11-03 17:36:00,
2013-11-03 12:41:00,44.2,33.3,30.40,East,86,4.0,12.0,65,0.00,,,0.00,WUHU216DAVISVP2,2013-11-03 17:41:00,
2013-11-03 12:46:00,44.2,32.5,30.40,East,92,6.0,16.0,63,0.00,,,0.00,WUHU216DAVISVP2,2013-11-03 17:46:00,
2013-11-03 12:51:00,43.8,32.1,30.40,North,355,2.0,16.0,63,0.00,,,0.00,WUHU216DAVISVP2,2013-11-03 17:51:00,
2013-11-03 12:56:00,44.0,33.1,30.40,NNE,24,6.0,16.0,65,0.00,,,0.00,WUHU216DAVISVP2,2013-11-03 17:56:00,
2013-11-03 13:01:00,44.0,32.7,30.41,ESE,117,0.0,10.0,64,0.00,,,0.00,WUHU216DAVISVP2,2013-11-03 18:01:00,
2013-11-03 13:06:00,44.0,33.1,30.40,NNE,32,4.0,10.0,65,0.00,,,0.00,WUHU216DAVISVP2,2013-11-03 18:06:00,
2013-11-03 13:11:00,44.3,33.0,30.41,West,279,0.0,10.0,64,0.00,,,0.00,WUHU216DAVISVP2,2013-11-03 18:11:00,
2013-11-03 13:16:00,44.5,32.4,30.41,NNE,24,6.0,16.0,62,0.00,,,0.00,WUHU216DAVISVP2,2013-11-03 18:16:00,
2013-11-03 13:21:00,44.4,32.7,30.41,ESE,111,10.0,16.0,63,0.00,,,0.00,WUHU216DAVISVP2,2013-11-03 18:21:00,
2013-11-03 13:26:00,44.4,32.7,30.41,NE,36,10.0,16.0,63,0.00,,,0.00,WUHU216DAVISVP2,2013-11-03 18:26:00,
2013-11-03 13:31:00,44.1,32.0,30.41,North,355,6.0,16.0,62,0.00,,,0.00,WUHU216DAVISVP2,2013-11-03 18:31:00,
2013-11-03 13:36:00,44.1,32.0,30.41,ENE,63,4.0,12.0,62,0.00,,,0.00,WUHU216DAVISVP2,2013-11-03 18:36:00,
2013-11-03 13:41:00,44.2,31.7,30.41,NNW,338,2.0,10.0,61,0.00,,,0.00,WUHU216DAVISVP2,2013-11-03 18:41:00,
2013-11-03 13:46:00,44.2,31.7,30.41,East,87,4.0,12.0,61,0.00,,,0.00,WUHU216DAVISVP2,2013-11-03 18:46:00,
2013-11-03 13:51:00,44.1,32.0,30.41,ENE,67,14.0,16.0,62,0.00,,,0.00,WUHU216DAVISVP2,2013-11-03 18:51:00,
2013-11-03 13:56:00,44.4,33.1,30.41,East,80,2.0,16.0,64,0.00,,,0.00,WUHU216DAVISVP2,2013-11-03 18:56:00,
2013-11-03 14:01:00,44.9,33.5,30.41,ENE,70,6.0,12.0,64,0.00,,,0.00,WUHU216DAVISVP2,2013-11-03 19:01:00,
2013-11-03 14:06:00,45.0,32.8,30.41,NE,49,0.0,10.0,62,0.00,,,0.00,WUHU216DAVISVP2,2013-11-03 19:06:00,
2013-11-03 14:11:00,44.8,32.2,30.41,NNE,13,4.0,14.0,61,0.00,,,0.00,WUHU216DAVISVP2,2013-11-03 19:11:00,
2013-11-03 14:16:00,44.6,32.5,30.42,SE,139,6.0,14.0,62,0.00,,,0.00,WUHU216DAVISVP2,2013-11-03 19:16:00,
2013-11-03 14:21:00,44.1,32.0,30.42,SE,143,4.0,12.0,62,0.00,,,0.00,WUHU216DAVISVP2,2013-11-03 19:21:00,
2013-11-03 14:26:00,44.0,32.3,30.42,NE,40,0.0,12.0,63,0.00,,,0.00,WUHU216DAVISVP2,2013-11-03 19:26:00,
2013-11-03 14:31:00,44.2,32.5,30.42,NNE,14,2.0,10.0,63,0.00,,,0.00,WUHU216DAVISVP2,2013-11-03 19:31:00,
2013-11-03 14:36:00,44.4,32.3,30.42,ESE,120,2.0,12.0,62,0.00,,,0.00,WUHU216DAVISVP2,2013-11-03 19:36:00,
2013-11-03 14:41:00,44.7,33.4,30.43,NNE,21,6.0,12.0,64,0.00,,,0.00,WUHU216DAVISVP2,2013-11-03 19:41:00,
2013-11-03 14:46:00,44.3,32.2,30.43,SE,126,2.0,14.0,62,0.00,,,0.00,WUHU216DAVISVP2,2013-11-03 19:46:00,
2013-11-03 14:51:00,44.3,32.6,30.43,ENE,61,0.0,14.0,63,0.00,,,0.00,WUHU216DAVISVP2,2013-11-03 19:51:00,
2013-11-03 14:56:00,44.5,33.2,30.43,NE,36,8.0,8.0,64,0.00,,,0.00,WUHU216DAVISVP2,2013-11-03 19:56:00,
2013-11-03 15:01:00,44.3,33.0,30.43,NE,37,2.0,18.0,64,0.00,,,0.00,WUHU216DAVISVP2,2013-11-03 20:01:00,
2013-11-03 15:06:00,44.4,32.7,30.43,SE,145,8.0,18.0,63,0.00,,,0.00,WUHU216DAVISVP2,2013-11-03 20:06:00,
2013-11-03 15:11:00,44.2,32.9,30.43,NE,39,4.0,8.0,64,0.00,,,0.00,WUHU216DAVISVP2,2013-11-03 20:11:00,
2013-11-03 15:16:00,43.9,32.2,30.43,NE,35,12.0,14.0,63,0.00,,,0.00,WUHU216DAVISVP2,2013-11-03 20:16:00,
2013-11-03 15:21:00,43.3,32.0,30.43,NNE,19,6.0,14.0,64,0.00,,,0.00,WUHU216DAVISVP2,2013-11-03 20:21:00,
2013-11-03 15:26:00,43.1,32.6,30.44,East,98,2.0,14.0,66,0.00,,,0.00,WUHU216DAVISVP2,2013-11-03 20:26:00,
2013-11-03 15:31:00,43.1,32.6,30.44,NE,48,2.0,12.0,66,0.00,,,0.00,WUHU216DAVISVP2,2013-11-03 20:31:00,
2013-11-03 15:36:00,42.7,31.5,30.44,ENE,58,6.0,14.0,64,0.00,,,0.00,WUHU216DAVISVP2,2013-11-03 20:36:00,
2013-11-03 15:41:00,42.3,31.5,30.44,East,92,2.0,14.0,65,0.00,,,0.00,WUHU216DAVISVP2,2013-11-03 20:41:00,
2013-11-03 15:46:00,41.9,31.5,30.44,North,350,2.0,14.0,66,0.00,,,0.00,WUHU216DAVISVP2,2013-11-03 20:46:00,
2013-11-03 15:51:00,41.8,32.1,30.44,ENE,63,4.0,12.0,68,0.00,,,0.00,WUHU216DAVISVP2,2013-11-03 20:51:00,
2013-11-03 15:56:00,41.6,31.9,30.44,NNE,25,4.0,12.0,68,0.00,,,0.00,WUHU216DAVISVP2,2013-11-03 20:56:00,
2013-11-03 16:01:00,41.5,32.2,30.44,ESE,113,4.0,12.0,69,0.00,,,0.00,WUHU216DAVISVP2,2013-11-03 21:01:00,
2013-11-03 16:06:00,41.5,32.2,30.44,NNE,28,4.0,10.0,69,0.00,,,0.00,WUHU216DAVISVP2,2013-11-03 21:06:00,
2013-11-03 16:11:00,41.2,31.5,30.44,ENE,65,2.0,16.0,68,0.00,,,0.00,WUHU216DAVISVP2,2013-11-03 21:11:00,
2013-11-03 16:16:00,41.1,31.8,30.44,NE,39,0.0,16.0,69,0.00,,,0.00,WUHU216DAVISVP2,2013-11-03 21:16:00,
2013-11-03 16:21:00,40.9,31.6,30.44,ENE,61,0.0,10.0,69,0.00,,,0.00,WUHU216DAVISVP2,2013-11-03 21:21:00,
2013-11-03 16:26:00,40.6,31.7,30.44,NE,56,4.0,14.0,70,0.00,,,0.00,WUHU216DAVISVP2,2013-11-03 21:26:00,
2013-11-03 16:31:00,40.2,31.3,30.44,East,79,6.0,14.0,70,0.00,,,0.00,WUHU216DAVISVP2,2013-11-03 21:31:00,
2013-11-03 16:36:00,40.0,31.8,30.44,NE,37,8.0,10.0,72,0.00,,,0.00,WUHU216DAVISVP2,2013-11-03 21:36:00,
2013-11-03 16:41:00,39.7,31.1,30.44,ENE,59,4.0,8.0,71,0.00,,,0.00,WUHU216DAVISVP2,2013-11-03 21:41:00,
2013-11-03 16:46:00,39.5,31.3,30.44,East,93,6.0,8.0,72,0.00,,,0.00,WUHU216DAVISVP2,2013-11-03 21:46:00,
2013-11-03 16:51:00,39.2,30.7,30.44,East,84,4.0,8.0,71,0.00,,,0.00,WUHU216DAVISVP2,2013-11-03 21:51:00,
2013-11-03 16:56:00,39.1,30.9,30.44,NE,48,0.0,8.0,72,0.00,,,0.00,WUHU216DAVISVP2,2013-11-03 21:56:00,
2013-11-03 17:01:00,38.9,31.4,30.44,East,86,0.0,8.0,74,0.00,,,0.00,WUHU216DAVISVP2,2013-11-03 22:01:00,
2013-11-03 17:06:00,38.6,30.8,30.45,ENE,65,0.0,8.0,73,0.00,,,0.00,WUHU216DAVISVP2,2013-11-03 22:06:00,
2013-11-03 17:11:00,38.4,30.6,30.45,ENE,65,0.0,8.0,73,0.00,,,0.00,WUHU216DAVISVP2,2013-11-03 22:11:00,
2013-11-03 17:16:00,38.1,30.3,30.45,NNE,28,0.0,8.0,73,0.00,,,0.00,WUHU216DAVISVP2,2013-11-03 22:16:00,
2013-11-03 17:21:00,37.9,30.4,30.45,ENE,71,0.0,8.0,74,0.00,,,0.00,WUHU216DAVISVP2,2013-11-03 22:21:00,
2013-11-03 17:26:00,37.7,30.2,30.46,ENE,69,0.0,4.0,74,0.00,,,0.00,WUHU216DAVISVP2,2013-11-03 22:26:00,
2013-11-03 17:31:00,37.4,30.6,30.46,ENE,69,0.0,4.0,76,0.00,,,0.00,WUHU216DAVISVP2,2013-11-03 22:31:00,
2013-11-03 17:36:00,37.1,30.6,30.46,ENE,69,0.0,2.0,77,0.00,,,0.00,WUHU216DAVISVP2,2013-11-03 22:36:00,
2013-11-03 17:41:00,36.8,30.6,30.46,ENE,69,0.0,2.0,78,0.00,,,0.00,WUHU216DAVISVP2,2013-11-03 22:41:00,
2013-11-03 17:46:00,36.5,30.3,30.46,ENE,69,0.0,0.0,78,0.00,,,0.00,WUHU216DAVISVP2,2013-11-03 22:46:00,
2013-11-03 17:51:00,36.2,30.0,30.46,ENE,69,0.0,0.0,78,0.00,,,0.00,WUHU216DAVISVP2,2013-11-03 22:51:00,
2013-11-03 17:56:00,35.9,30.0,30.47,ENE,69,0.0,2.0,79,0.00,,,0.00,WUHU216DAVISVP2,2013-11-03 22:56:00,
2013-11-03 18:01:00,35.7,29.8,30.47,ENE,69,0.0,2.0,79,0.00,,,0.00,WUHU216DAVISVP2,2013-11-03 23:01:00,
2013-11-03 18:06:00,35.5,29.7,30.47,NE,53,0.0,4.0,79,0.00,,,0.00,WUHU216DAVISVP2,2013-11-03 23:06:00,
2013-11-03 18:11:00,35.2,29.7,30.47,NE,53,0.0,4.0,80,0.00,,,0.00,WUHU216DAVISVP2,2013-11-03 23:11:00,
2013-11-03 18:16:00,34.9,29.7,30.47,NE,53,0.0,2.0,81,0.00,,,0.00,WUHU216DAVISVP2,2013-11-03 23:16:00,
2013-11-03 18:21:00,34.6,29.4,30.47,NE,53,0.0,0.0,81,0.00,,,0.00,WUHU216DAVISVP2,2013-11-03 23:21:00,
2013-11-03 18:26:00,34.2,29.3,30.48,NE,53,0.0,0.0,82,0.00,,,0.00,WUHU216DAVISVP2,2013-11-03 23:26:00,
2013-11-03 18:31:00,33.9,29.3,30.48,NE,53,0.0,0.0,83,0.00,,,0.00,WUHU216DAVISVP2,2013-11-03 23:31:00,
2013-11-03 18:36:00,33.8,29.2,30.48,NE,53,0.0,4.0,83,0.00,,,0.00,WUHU216DAVISVP2,2013-11-03 23:36:00,
2013-11-03 18:41:00,33.5,29.2,30.48,NE,54,0.0,4.0,84,0.00,,,0.00,WUHU216DAVISVP2,2013-11-03 23:41:00,
2013-11-03 18:46:00,33.3,29.0,30.48,NE,54,0.0,2.0,84,0.00,,,0.00,WUHU216DAVISVP2,2013-11-03 23:46:00,
2013-11-03 18:51:00,33.2,29.2,30.49,NE,54,0.0,0.0,85,0.00,,,0.00,WUHU216DAVISVP2,2013-11-03 23:51:00,
2013-11-03 18:56:00,33.0,29.2,30.49,NE,54,0.0,0.0,86,0.00,,,0.00,WUHU216DAVISVP2,2013-11-03 23:56:00,
2013-11-03 19:01:00,32.8,29.0,30.49,NE,54,0.0,0.0,86,0.00,,,0.00,WUHU216DAVISVP2,2013-11-04 00:01:00,
2013-11-03 19:06:00,32.6,29.1,30.49,NE,54,0.0,2.0,87,0.00,,,0.00,WUHU216DAVISVP2,2013-11-04 00:06:00,
2013-11-03 19:11:00,32.5,29.0,30.49,NE,54,0.0,2.0,87,0.00,,,0.00,WUHU216DAVISVP2,2013-11-04 00:11:00,
2013-11-03 19:16:00,32.4,28.9,30.49,ESE,114,0.0,4.0,87,0.00,,,0.00,WUHU216DAVISVP2,2013-11-04 00:16:00,
2013-11-03 19:21:00,32.4,28.9,30.50,ESE,114,0.0,4.0,87,0.00,,,0.00,WUHU216DAVISVP2,2013-11-04 00:21:00,
2013-11-03 19:26:00,32.3,29.1,30.50,ESE,114,0.0,4.0,88,0.00,,,0.00,WUHU216DAVISVP2,2013-11-04 00:26:00,
2013-11-03 19:31:00,32.2,29.0,30.50,ESE,114,0.0,2.0,88,0.00,,,0.00,WUHU216DAVISVP2,2013-11-04 00:31:00,
2013-11-03 19:36:00,32.0,28.8,30.50,ESE,114,0.0,2.0,88,0.00,,,0.00,WUHU216DAVISVP2,2013-11-04 00:36:00,
2013-11-03 19:41:00,31.9,28.7,30.50,ESE,114,0.0,2.0,88,0.00,,,0.00,WUHU216DAVISVP2,2013-11-04 00:41:00,
2013-11-03 19:46:00,31.8,28.3,30.50,ESE,111,0.0,6.0,87,0.00,,,0.00,WUHU216DAVISVP2,2013-11-04 00:46:00,
2013-11-03 19:51:00,31.9,28.7,30.50,ESE,111,0.0,6.0,88,0.00,,,0.00,WUHU216DAVISVP2,2013-11-04 00:51:00,
2013-11-03 19:56:00,31.8,28.6,30.50,ESE,111,0.0,2.0,88,0.00,,,0.00,WUHU216DAVISVP2,2013-11-04 00:56:00,
2013-11-03 20:01:00,31.8,28.1,30.50,ENE,74,0.0,4.0,86,0.00,,,0.00,WUHU216DAVISVP2,2013-11-04 01:01:00,
2013-11-03 20:06:00,31.8,28.3,30.51,SE,139,0.0,6.0,87,0.00,,,0.00,WUHU216DAVISVP2,2013-11-04 01:06:00,
2013-11-03 20:11:00,31.8,28.3,30.51,SE,139,0.0,6.0,87,0.00,,,0.00,WUHU216DAVISVP2,2013-11-04 01:11:00,
2013-11-03 20:16:00,31.7,28.0,30.51,East,95,0.0,6.0,86,0.00,,,0.00,WUHU216DAVISVP2,2013-11-04 01:16:00,
2013-11-03 20:21:00,31.7,28.0,30.52,ESE,110,0.0,6.0,86,0.00,,,0.00,WUHU216DAVISVP2,2013-11-04 01:21:00,
2013-11-03 20:26:00,31.6,27.9,30.52,SE,138,0.0,2.0,86,0.00,,,0.00,WUHU216DAVISVP2,2013-11-04 01:26:00,
2013-11-03 20:31:00,31.5,27.8,30.52,ESE,108,0.0,4.0,86,0.00,,,0.00,WUHU216DAVISVP2,2013-11-04 01:31:00,
2013-11-03 20:36:00,31.5,27.8,30.52,ESE,108,0.0,4.0,86,0.00,,,0.00,WUHU216DAVISVP2,2013-11-04 01:36:00,
2013-11-03 20:41:00,31.4,27.7,30.52,ESE,121,0.0,2.0,86,0.00,,,0.00,WUHU216DAVISVP2,2013-11-04 01:41:00,
2013-11-03 20:46:00,31.3,27.6,30.52,ESE,121,0.0,2.0,86,0.00,,,0.00,WUHU216DAVISVP2,2013-11-04 01:46:00,
2013-11-03 20:51:00,31.2,27.5,30.52,ESE,121,0.0,2.0,86,0.00,,,0.00,WUHU216DAVISVP2,2013-11-04 01:51:00,
2013-11-03 20:56:00,31.2,27.5,30.52,ESE,121,0.0,4.0,86,0.00,,,0.00,WUHU216DAVISVP2,2013-11-04 01:56:00,
2013-11-03 21:01:00,31.2,27.5,30.52,ESE,121,2.0,4.0,86,0.00,,,0.00,WUHU216DAVISVP2,2013-11-04 02:01:00,
2013-11-03 21:06:00,31.1,27.4,30.52,ESE,121,0.0,2.0,86,0.00,,,0.00,WUHU216DAVISVP2,2013-11-04 02:06:00,
2013-11-03 21:11:00,31.1,27.1,30.52,SE,134,2.0,6.0,85,0.00,,,0.00,WUHU216DAVISVP2,2013-11-04 02:11:00,
2013-11-03 21:16:00,31.2,26.9,30.52,East,97,0.0,6.0,84,0.00,,,0.00,WUHU216DAVISVP2,2013-11-04 02:16:00,
2013-11-03 21:21:00,31.3,26.7,30.52,ESE,109,0.0,6.0,83,0.00,,,0.00,WUHU216DAVISVP2,2013-11-04 02:21:00,
2013-11-03 21:26:00,31.4,27.1,30.52,SE,127,0.0,6.0,84,0.00,,,0.00,WUHU216DAVISVP2,2013-11-04 02:26:00,
2013-11-03 21:31:00,31.4,26.8,30.52,SE,127,0.0,4.0,83,0.00,,,0.00,WUHU216DAVISVP2,2013-11-04 02:31:00,
2013-11-03 21:36:00,31.4,26.8,30.53,East,99,0.0,4.0,83,0.00,,,0.00,WUHU216DAVISVP2,2013-11-04 02:36:00,
2013-11-03 21:41:00,31.4,26.8,30.52,SSE,150,2.0,4.0,83,0.00,,,0.00,WUHU216DAVISVP2,2013-11-04 02:41:00,
2013-11-03 21:46:00,31.3,26.7,30.53,South,178,0.0,8.0,83,0.00,,,0.00,WUHU216DAVISVP2,2013-11-04 02:46:00,
2013-11-03 21:51:00,31.3,26.4,30.53,SSE,164,0.0,8.0,82,0.00,,,0.00,WUHU216DAVISVP2,2013-11-04 02:51:00,
2013-11-03 21:56:00,31.2,26.9,30.53,SE,135,0.0,8.0,84,0.00,,,0.00,WUHU216DAVISVP2,2013-11-04 02:56:00,
2013-11-03 22:01:00,31.0,26.7,30.53,SE,135,0.0,2.0,84,0.00,,,0.00,WUHU216DAVISVP2,2013-11-04 03:01:00,
2013-11-03 22:06:00,30.8,26.5,30.53,SE,135,0.0,4.0,84,0.00,,,0.00,WUHU216DAVISVP2,2013-11-04 03:06:00,
2013-11-03 22:11:00,30.6,26.6,30.53,SE,135,0.0,4.0,85,0.00,,,0.00,WUHU216DAVISVP2,2013-11-04 03:11:00,
2013-11-03 22:16:00,30.5,26.5,30.53,SE,135,0.0,2.0,85,0.00,,,0.00,WUHU216DAVISVP2,2013-11-04 03:16:00,
2013-11-03 22:21:00,30.3,26.3,30.53,SE,135,0.0,2.0,85,0.00,,,0.00,WUHU216DAVISVP2,2013-11-04 03:21:00,
2013-11-03 22:26:00,30.2,26.5,30.53,South,169,0.0,4.0,86,0.00,,,0.00,WUHU216DAVISVP2,2013-11-04 03:26:00,
2013-11-03 22:31:00,30.2,26.5,30.54,South,169,0.0,4.0,86,0.00,,,0.00,WUHU216DAVISVP2,2013-11-04 03:31:00,
2013-11-03 22:36:00,30.1,26.4,30.53,South,169,0.0,2.0,86,0.00,,,0.00,WUHU216DAVISVP2,2013-11-04 03:36:00,
2013-11-03 22:41:00,30.1,26.4,30.53,South,169,0.0,2.0,86,0.00,,,0.00,WUHU216DAVISVP2,2013-11-04 03:41:00,
2013-11-03 22:46:00,30.0,26.3,30.53,SE,138,0.0,2.0,86,0.00,,,0.00,WUHU216DAVISVP2,2013-11-04 03:46:00,
2013-11-03 22:51:00,30.0,26.3,30.53,SE,138,0.0,2.0,86,0.00,,,0.00,WUHU216DAVISVP2,2013-11-04 03:51:00,
2013-11-03 22:56:00,30.1,26.1,30.53,ESE,103,0.0,8.0,85,0.00,,,0.00,WUHU216DAVISVP2,2013-11-04 03:56:00,
2013-11-03 23:01:00,30.2,26.2,30.53,SSE,158,4.0,8.0,85,0.00,,,0.00,WUHU216DAVISVP2,2013-11-04 04:01:00,
2013-11-03 23:06:00,30.4,26.1,30.53,SE,142,0.0,6.0,84,0.00,,,0.00,WUHU216DAVISVP2,2013-11-04 04:06:00,
2013-11-03 23:11:00,30.6,26.0,30.53,SE,130,2.0,6.0,83,0.00,,,0.00,WUHU216DAVISVP2,2013-11-04 04:11:00,
2013-11-03 23:16:00,30.7,25.8,30.53,ESE,123,0.0,6.0,82,0.00,,,0.00,WUHU216DAVISVP2,2013-11-04 04:16:00,
2013-11-03 23:21:00,30.8,26.2,30.53,ESE,119,0.0,6.0,83,0.00,,,0.00,WUHU216DAVISVP2,2013-11-04 04:21:00,
2013-11-03 23:26:00,30.8,26.2,30.53,ESE,120,0.0,4.0,83,0.00,,,0.00,WUHU216DAVISVP2,2013-11-04 04:26:00,
2013-11-03 23:31:00,30.7,26.1,30.53,ESE,120,0.0,4.0,83,0.00,,,0.00,WUHU216DAVISVP2,2013-11-04 04:31:00,
2013-11-03 23:36:00,30.6,25.8,30.53,SSE,162,4.0,6.0,82,0.00,,,0.00,WUHU216DAVISVP2,2013-11-04 04:36:00,
2013-11-03 23:41:00,30.7,25.8,30.53,SE,138,0.0,6.0,82,0.00,,,0.00,WUHU216DAVISVP2,2013-11-04 04:41:00,
2013-11-03 23:46:00,30.7,26.1,30.54,ESE,111,0.0,4.0,83,0.00,,,0.00,WUHU216DAVISVP2,2013-11-04 04:46:00,
2013-11-03 23:51:00,30.7,25.8,30.54,ESE,111,0.0,2.0,82,0.00,,,0.00,WUHU216DAVISVP2,2013-11-04 04:51:00,
2013-11-03 23:56:00,30.7,25.8,30.54,SSE,149,0.0,6.0,82,0.00,,,0.00,WUHU216DAVISVP2,2013-11-04 04:56:00,